SENTINEL-3A (41335 NORAD) Tracking and Keplerian Element Data

This shows tracking and keplerian element data for the satellite.

Feedback or suggestion? Click here.




ElementValue
Catalog41335
NameSENTINEL-3A
Epoch Orbit34426
Epoch Day270.09951827
Epoch Year2022
RAAN335.9292
Inclination98.6286
Eccentricity0.0001179
Argument of Perigee97.2677
Mean Anonmoly262.8637
Mean Motion14.26738367
Decay Rate7.5E-07
L11 41335U 16011A 22270.09951827 .00000075 00000+0 49143-4 0 9995
L22 41335 98.6286 335.9292 0001179 97.2677 262.8637 14.26738367344266

Live tracking and technical data element details for SENTINEL-3A (NORAD 41335). SENTINEL-3A can be tracked NOW for your location showing map with azimuth and elevation plus other details from your city location.

Track the satellite on the map from your city or location and see movement details for azimuth, elevation, latitude, longitude, range, height, and movement on the map or in text.







IsCatalogInMostPopularTable: catalog: 41335, numindb: 699
Update: records affected: 1



GetName: 41335 SENTINEL-3A

Hit Count: updated at: Wed, 28 Sep 2022 22:30:36 GMT